Presure
126 126 126 126 125 128 122 133 127 139 134 129 149 139 223 146 168 156 150 148 154 182 172 160 154 162 161 160 152 153 156 177 169 190 187 220 342 287 296 325 325 295 296
148 137 139 137 126 131 131 132 128 130 134 143 134 136 137 146 142 135 146 140 151 171 173 158 146 167 147 146 160 151 173 166 169 178 174 200 302 297 298 316 367 304 300
162 137 129 159 150 145 132 124 129 130 137 142 132 142 134 152 168 138 157 135 139 153 169 169 161 158 157 129 146 146 148 154 168 191 182 180 213 314 301 318 369 332 289
130 161 124 153 152 125 133 139 126 133 133 133 138 148 138 136 158 149 130 152 129 154 148 179 155 150 137 145 138 155 164 149 159 173 173 172 186 334 299 319 375 417 308
139 148 139 135 165 185 137 133 127 126 133 141 139 132 138 135 136 149 139 134 131 140 162 154 154 151 156 149 148 144 169 151 150 161 169 174 181 218 306 330 379 304 280
126 133 114 206 197 206 133 126 130 126 128 139 139 140 149 154 131 137 183 154 124 132 163 160 143 158 151 144 145 180 177 148 152 174 166 177 163 189 223 332 387 307 288
143 149 157 155 146 163 132 136 136 123 133 130 137 140 128 145 136 136 125 143 151 129 157 167 157 138 152 134 132 149 165 153 153 155 163 161 177 178 231 219 373 287 267
121 143 148 148 159 152 132 142 135 132 123 134 132 135 123 128 140 134 132 132 140 124 148 168 161 144 154 134 142 139 162 156 151 183 162 157 165 172 186 179 216 291 257
112 106 137 150 141 130 141 136 144 122 132 134 132 133 140 143 126 129 129 141 141 130 143 177 156 143 158 150 154 152 128 169 159 161 153 135 154 171 169 165 192 229 269
152 153 122 158 115 160 133 132 138 139 126 127 133 139 135 141 124 131 131 136 138 152 143 167 153 177 140 151 145 162 140 167 152 163 158 161 150 160 179 202 178 178 213
131 136 124 122 128 130 157 121 151 133 121 130 134 133 128 141 135 137 131 157 165 147 171 162 154 190 147 132 141 160 165 153 153 147 154 151 150 179 159 169 180 185 204
111 138 127 133 122 145 137 150 135 128 127 134 150 142 147 120 129 138 138 158 176 145 135 136 166 158 141 147 147 113 142 152 159 174 187 149 162 136 154 166 170 164 168
137 139 138 144 138 132 141 136 138 147 140 150 140 134 132 147 154 155 164 164 147 168 173 163 172 151 148 153 142 151 142 171 196 151 141 153 155 169 209 149 159 159 157
131 128 149 140 141 156 134 172 145 126 142 163 142 150 136 131 143 150 145 148 165 162 140 155 171 157 128 146 145 134 151 145 185 163 144 150 165 154 143 160 149 183 175
178 158 161 136 146 144 154 144 133 140 139 124 123 123 134 140 133 149 126 135 127 140 133 155 176 138 140 142 148 128 149 141 127 168 137 148 141 150 153 134 172 154 172
156 175 206 177 142 133 147 134 146 143 154 139 126 137 149 125 124 132 140 150 139 143 143 139 135 126 127 153 164 131 124 140 149 150 145 155 143 147 153 199 143 189 194
219 159 152 175 184 178 132 150 152 131 144 157 142 153 151 126 156 115 134 146 148 154 163 171 158 133 128 145 156 148 164 133 168 144 198 166 166 177 134 184 157 143 154
141 241 187 165 161 159 114 164 151 150 149 151 160 159 157 150 139 155 136 132 144 143 154 140 135 138 127 150 133 135 163 126 147 171 177 162 124 186 141 158 185 164 140
250 256 200 207 196 180 134 169 142 199 153 150 159 137 154 175 152 153 163 151 146 137 139 160 154 150 163 121 161 143 154 143 174 153 137 155 171 178 143 147 143 176 151
241 250 204 266 271 172 145 174 172 146 197 144 152 156 176 153 151 152 151 156 156 161 160 147 131 137 152 166 134 157 135 184 150 152 142 138 157 155 156 134 144 141 172
240 237 245 245 269 262 278 282 175 179 148 184 184 161 154 165 164 152 153 159 154 160 171 123 119 135 171 161 135 134 126 148 152 160 149 154 174 161 173 134 134 149 176
243 233 251 260 232 201 171 277 146 223 188 175 151 153 159 154 163 163 169 161 159 159 130 149 150 152 168 182 162 127 133 154 142 159 134 136 157 148 163 145 182 203 144
258 221 209 201 254 259 259 264 262 214 205 180 184 191 198 160 156 158 165 168 174 172 171 203 136 162 154 158 135 140 135 140 156 141 143 133 139 126 145 145 148 154 160
251 269 239 254 247 123 253 252 151 268 264 176 153 151 148 146 153 160 162 164 170 174 121 201 199 174 143 132 132 175 171 169 130 191 136 145 143 139 143 129 173 169 140
248 274 265 247 250 244 168 248 148 271 226 165 252 223 188 193 144 154 159 158 159 168 168 162 127 143 200 161 135 175 158 142 141 162 151 133 155 167 135 176 134 133 159
261 274 277 272 272 275 236 121 257 262 197 146 184 213 184 183 153 152 160 159 161 134 146 127 154 196 154 172 151 183 155 171 146 126 144 173 161 172 133 149 135 161 160
Wind_Speed
18 19 19 20 18 16 11 18 12 23 20 17 30 25 24 28 22 28 33 37 41 37 38 37 42 47 56 60 60 63 68 87 86 102 105 107 56 66 62 48 2 11 14
18 20 19 21 21 21 17 16 13 15 18 24 19 20 26 28 27 27 32 37 40 40 29 35 39 47 42 48 66 61 76 79 84 93 96 104 77 64 63 54 23 13 23
26 30 28 33 25 23 19 11 12 13 21 25 16 21 22 29 22 29 29 34 38 43 34 32 37 40 48 48 46 52 59 68 76 91 96 97 106 64 64 59 37 19 32
38 31 30 35 26 21 21 20 10 17 14 14 18 21 19 26 30 28 26 30 30 37 31 28 31 32 37 41 49 60 63 60 71 84 89 88 99 66 66 60 43 15 42
38 32 33 25 36 34 23 21 12 13 16 21 17 17 20 21 28 27 29 29 30 34 32 28 29 30 35 36 43 44 61 57 60 71 81 85 94 100 68 59 46 30 41
40 34 28 27 29 27 25 20 17 14 14 22 18 18 21 24 26 30 24 28 23 33 23 24 26 28 29 30 37 58 58 51 57 70 76 86 73 96 96 57 47 38 39
22 31 34 20 30 34 25 28 22 15 18 16 17 22 20 22 22 29 27 30 31 31 21 22 17 26 24 32 37 39 50 48 54 61 71 72 82 89 93 91 48 35 17
20 23 32 25 27 32 24 30 25 19 16 21 17 19 22 27 27 26 28 32 33 22 31 14 13 21 22 30 30 40 44 44 49 61 59 62 71 82 91 73 90 26 24
29 23 41 31 35 26 33 33 24 20 24 21 18 20 28 29 27 27 30 34 30 28 37 16 11 18 18 21 32 34 40 47 45 55 55 45 59 77 75 73 85 69 24
61 55 32 77 27 52 26 28 29 34 26 18 21 28 22 28 26 29 30 31 28 31 36 18 18 13 23 20 24 37 30 38 37 49 53 57 53 61 73 78 82 77 79
51 52 52 45 45 34 50 32 28 33 26 27 25 24 20 33 34 37 31 35 29 31 25 21 21 22 11 25 25 34 31 39 39 35 43 45 48 58 64 71 79 80 79
36 76 59 49 42 31 33 45 36 34 36 32 37 36 37 28 32 39 36 35 28 26 18 19 26 14 22 15 22 23 31 32 33 42 53 37 52 37 50 64 69 65 73
84 85 78 81 64 52 56 32 36 43 42 43 39 33 31 38 38 36 34 34 22 35 31 33 27 16 19 15 20 24 31 27 41 31 30 36 43 46 59 44 54 54 54
67 61 98 77 72 85 46 88 48 43 43 51 46 46 37 38 41 38 35 35 37 35 15 23 28 14 13 21 18 20 25 30 32 26 28 32 41 38 33 49 40 53 58
99 94 95 63 83 74 77 52 51 52 47 37 32 35 38 44 37 45 18 24 17 22 23 24 30 5 14 21 13 17 23 26 16 29 26 25 27 32 39 24 43 38 49
92 98 97 98 76 67 75 52 64 57 63 52 44 50 56 32 29 35 44 42 28 31 26 16 12 10 11 12 22 15 9 19 23 26 24 20 23 27 30 42 25 42 52
116 94 91 98 98 94 56 80 80 53 60 65 59 64 59 41 60 28 41 46 38 40 42 38 27 17 16 16 22 17 25 17 21 23 25 19 23 20 19 35 30 20 32
72 112 102 95 90 88 41 87 78 72 69 71 68 64 69 62 52 58 46 37 38 34 35 25 25 25 21 25 18 18 22 6 26 26 21 19 10 20 22 22 33 27 17
92 91 82 82 96 94 65 85 66 85 71 72 72 55 69 68 61 58 62 55 45 32 37 42 30 30 34 15 29 25 22 17 23 16 10 16 18 19 18 20 17 27 25
97 93 79 83 80 78 73 86 83 73 81 71 72 72 69 71 61 60 56 58 56 55 49 38 32 33 29 37 23 21 20 41 16 17 16 8 13 17 20 14 17 15 24
98 96 90 86 80 80 75 79 84 84 78 78 76 77 73 75 76 61 59 64 56 55 57 30 23 36 43 36 25 24 15 28 19 23 22 16 27 8 16 9 14 18 20
98 90 90 82 77 73 74 76 74 89 85 80 76 75 76 73 75 71 70 65 61 56 33 43 42 40 42 55 38 23 27 33 25 22 18 16 14 19 14 15 35 40 14
83 73 78 68 81 80 78 76 80 82 86 85 81 78 74 76 71 69 72 70 69 65 64 68 42 46 41 42 37 34 40 37 30 30 28 22 21 17 22 20 21 17 16
77 82 75 76 72 48 79 77 77 76 79 85 77 73 67 63 69 72 70 68 68 69 37 71 66 57 43 33 33 43 40 37 29 59 26 36 36 28 31 18 37 25 21
71 78 80 75 78 77 55 69 49 67 77 84 79 78 83 79 56 65 68 61 60 68 65 51 39 49 76 52 44 45 48 47 45 39 41 28 43 38 23 40 21 19 24
68 68 72 74 74 70 64 49 67 65 76 61 85 81 85 83 68 60 71 66 65 53 49 47 53 56 48 57 46 67 47 45 44 26 43 49 43 49 25 39 29 38 34
Wind_Direction
253 265 271 277 285 294 309 325 341 344 357 352 3 354 352 4 10 4 3 1 5 21 22 17 17 22 30 27 20 14 13 16 19 16 17 16 10 11 9 12 108 151 146
280 261 276 278 264 278 288 305 323 335 342 347 348 353 344 353 357 1 358 358 0 19 24 19 7 28 19 19 30 18 20 17 18 19 22 20 16 13 8 8 16 171 139
266 245 244 272 267 261 268 278 298 320 328 334 339 355 343 349 347 354 348 359 1 3 12 13 25 29 32 5 17 13 16 15 17 16 20 25 20 14 10 5 12 180 145
233 255 231 268 263 250 263 267 280 300 317 324 332 350 345 339 344 351 354 351 2 353 360 13 22 17 10 15 17 23 19 17 15 17 25 28 24 16 11 8 19 64 147
238 243 239 242 280 268 242 259 264 283 306 315 329 332 339 337 331 339 340 348 358 1 7 10 13 10 35 24 22 17 22 18 19 18 22 23 26 24 14 17 28 150 154
244 248 239 274 276 264 241 247 253 269 292 308 318 327 331 342 326 331 333 330 353 357 357 4 355 13 20 13 19 24 26 17 21 14 22 20 32 27 27 23 33 143 144
254 267 269 256 212 267 235 249 242 253 277 293 314 318 314 322 320 318 331 329 329 352 347 350 353 342 19 350 23 19 22 20 23 22 22 25 22 30 30 32 37 134 140
224 255 252 252 237 247 239 239 250 259 266 284 298 310 303 308 316 317 322 327 330 343 340 349 3 345 22 346 11 18 23 25 22 26 24 26 27 29 25 31 33 141 62
229 224 251 238 212 227 226 240 241 260 267 276 286 297 305 308 305 308 318 311 324 340 333 337 329 334 11 12 22 12 5 19 31 31 23 33 28 25 35 34 29 39 65
238 240 228 244 242 242 238 251 258 267 265 271 278 285 299 294 296 299 310 314 322 315 331 325 307 321 321 13 12 26 7 27 28 38 33 25 29 31 20 29 24 32 35
233 222 240 245 250 241 253 232 251 251 259 264 267 280 265 284 279 286 301 291 287 313 305 298 288 308 340 331 344 13 14 25 14 29 31 28 28 16 34 25 21 25 35
224 223 242 232 237 238 239 245 225 243 252 254 260 263 262 262 278 283 288 286 285 301 341 329 296 319 316 342 13 41 0 11 24 27 22 26 28 30 37 32 26 34 31
233 233 242 233 247 239 238 232 230 246 243 253 251 251 249 269 272 270 270 281 285 284 286 287 298 301 315 344 337 8 358 12 25 22 8 32 32 8 48 41 38 43 40
240 240 230 241 242 241 230 243 237 236 238 258 248 250 246 249 260 263 272 275 274 276 314 316 292 257 323 339 341 356 348 356 29 16 8 26 29 28 36 21 42 23 25
233 234 236 240 242 242 243 238 233 239 240 245 252 256 246 245 260 259 255 268 271 282 291 290 280 312 333 332 319 336 1 346 358 16 356 6 12 30 28 28 36 25 33
231 235 239 234 242 241 243 234 247 242 247 239 249 250 248 255 258 262 267 262 266 272 285 277 274 290 308 319 333 334 345 328 331 340 355 357 0 22 26 40 28 43 49
237 232 231 236 238 237 234 242 242 238 242 242 241 244 246 247 251 257 265 267 269 274 278 274 267 262 286 296 304 305 326 316 324 333 5 355 357 10 359 32 23 38 38
233 238 236 236 234 234 237 237 239 240 237 239 239 239 243 247 246 250 253 258 263 265 272 252 261 261 276 265 286 282 318 299 306 330 342 345 349 5 349 6 33 17 25
241 243 240 241 238 236 237 233 237 240 237 237 236 239 238 238 245 248 251 254 258 251 262 266 258 266 266 276 279 265 286 271 322 294 306 336 333 351 338 348 358 12 6
240 243 243 245 245 236 236 233 231 232 237 236 236 236 235 241 244 246 249 253 256 258 259 251 259 268 254 272 263 255 284 288 275 265 287 277 336 322 329 320 337 343 30
240 241 244 244 249 244 242 241 231 232 231 232 233 232 236 236 241 245 248 251 254 256 256 259 268 262 264 258 254 271 275 266 267 266 273 278 324 337 339 273 294 335 29
239 240 244 245 242 237 233 241 229 238 232 230 234 234 233 237 239 243 244 247 251 254 249 251 252 251 258 265 263 274 277 248 266 258 270 275 275 289 305 286 323 325 316
238 237 237 238 241 241 239 239 239 235 234 228 227 228 231 236 241 243 244 246 247 249 254 246 253 254 235 248 256 258 270 265 261 265 265 276 269 263 291 292 293 302 292
238 239 236 237 237 227 241 239 228 240 241 231 234 236 239 243 242 242 244 246 246 248 251 247 248 251 244 263 263 260 261 257 275 277 274 256 263 275 281 268 303 288 288
234 234 237 236 234 237 240 240 231 239 234 228 240 233 227 228 243 245 245 246 246 248 250 248 250 243 248 243 258 259 248 263 266 258 264 275 263 272 266 293 282 286 276
231 231 234 236 238 239 234 230 239 238 232 236 230 233 227 228 243 245 244 246 248 243 231 239 248 247 244 255 244 261 250 255 257 276 264 275 269 280 266 271 277 289 275